STARLINK-11289, 60991

Orbit data source: Space-Track

STARLINK-11289, 60991 is a payload satellite owned by SpaceX/Seattle (US) in LEO that was launched on Thu, 05 Sep 2024 UTC via an FALCON 9 launch vehicle from the Air Force Eastern Test Range (AFETR). Payload-class satellites include a variety of spacecraft equipped with specific instruments for various scientific and technological missions. These include communications satellites like Starlink; space stations such as the ISS; scientific satellites like the Hubble; Earth observation satellites from companies like Planet Labs, Umbra, and HawkEye 360; GPS; miniature CubeSats for education and research; and military/defense satellites.

Loading next visibility...
Identifier
60991, 2024-158B
Orbit
LEO
Last TLE update
8 hours ago
Origin
Manufacturer
SpaceX/Seattle
Mission
Operational Commercial Communications
Bus & Motor
STARLINK V2M, Unknown motor
Mass
730 kg wet, ~700 kg dry
Launch date (UTC)
2024-09-05 (10 months ago)
Launch vehicle
FALCON 9
Launch site
Air Force Eastern Test Range (AFETR)
Object type
Payload
Rocket body
Debris
Shape & HBR
Box + 2 Pan, 29 m
Radar Cross Section
36.964 m², Large (>1 m²)

Expand to show TLE details & history

TLE from 8 hours ago
0 STARLINK-11289
1 60991U 24158B   25183.95398681 -.00000207  00000-0  31432-5 0  9991
2 60991  53.1589  72.1667 0000896  82.2770 277.8350 15.69710814 48372
Epoch: 2025-07-02T22:53Z
TLE epoch observation values (Epoch: 2025-07-02T22:53:44.46Z)
Latitude
0.00001°
Longitude
167.50378°
Altitude
360.557 km
Speed
7.694 km/s
True Right ascension
04h 48m 40s
True Declination
0° 00' 00"
Sunlit
Object was in daylight at epoch
Visualization orbit readout
Latitude
49.59126°
Longitude
-75.21909°
Altitude
364.887 km
Speed
7.697 km/s
Apparent Right ascension
09h 29m 13s
Apparent Declination
8° 51' 12"
Sunlit
Object is in daylight
Visualization observer readout
Local Sidereal Time
18:45:29
Azimuth
312.68° NW
Elevation
-28.278°
Doppler factor
1
Orbital elements
Apogee altitude
360.589 km
Perigee altitude
359.382 km
Semi-major axis
6,738.122 km
Eccentricity
0.00009
Inclination
53.1589°
RAAN
72.1667°
Arg. of periapsis
82.277°
True anomaly
Unknown
Mean anomaly
277.835°
Eccentric anomaly
Unknown
Mean motion
3.92405 °/min
Orbital period
91.74 mins
BSTAR
0.0000031432
Loading maneuver chart data...
Loading SW <> Apogee altitude chart data...
Loading historical data...
Loading historical data...
Loading historical data...
Loading historical data...
Loading historical data...
Loading historical data...
Loading historical data...

STARLINK-11289 Visibility forecast

Observer location: undefined°, undefined°

Span
Click to sort rows by Start time (UTC) header in descending order
Start Az.
Max El. time (UTC)
Max El. Az.
Max El.
End time (UTC)
End Az.
5 mins2025-07-03 18:55:42.978Z211.613° SW2025-07-03 18:58:42.978Z111.578° ESE35.882°2025-07-03 19:00:42.978Z62.821° ENE
4 mins2025-07-04 01:21:42.978Z344.981° N2025-07-04 01:22:42.978Z18.061° NNE27.75°2025-07-04 01:25:42.978Z100.288° ESE
|